User: anonymous   Login
Location: Ostrava
(49.8330°N, 18.2830°E)
Time: 02:15:24
(UTC+02:00)
Language:

Iridium 7 - Orbit

View from above orbital plane
View from above orbital plane
View from above satellite
View from above satellite

Ground track
Ground track

The orbit data is extracted from the following two-line orbital elements,

1 24793U 97020B   15116.50811897  .00000253  00000-0  83276-4 0  9996
2 24793 086.3928 286.0713 0002123 092.7046 323.2611 14.34221941941010
Epoch (UTC): 26 April 2015 12:11:41
Eccentricity: 0.0002123
inclination: 86.3928°
perigee height: 776 km
apogee height: 779 km
right ascension of ascending node: 286.0713°
argument of perigee: 92.7046°
revolutions per day: 14.34221941
mean anomaly at epoch: 323.2611°
orbit number at epoch: 94101

The dashed part of the orbit path shows where the satellite is in the earth's shadow,  

DLR